Home > Weather > Schmallenberg > Past weeks

Flag for Germany Weather for the Past 2 Weeks in Schmallenberg, North Rhine-Westphalia, Germany

Now
39 °F

Sunny.


Feels Like: 39 °F
Forecast: 35 / 59 °F
Wind: No wind

Location: Hessen

Current Time: May 4, 2016 at 8:22:41 AM

Latest Report: May 4, 2016 at 7:20 AM


Visibility: 10 mi

Pressure: 30.36 "Hg

Humidity: 81%

Dew Point: 34 °F

Location of SchmallenbergLocation

Historic Weather in Schmallenberg — Graph

°F

Schmallenberg Temperature Yesterday

Maximum temperature yesterday: 50 °F (at 5:20 PM)
Minimum temperature yesterday: 41 °F (at 1:20 PM)
Average temperature yesterday: 46 °F

High & Low Weather Summary for the Past Weeks

 TemperatureHumidityPressure
High63 °F (Apr 21, 5:20 PM)100% (Apr 23, 7:50 AM)30.42 "Hg (Apr 23, 7:50 AM)
Low30 °F (Apr 24, 7:50 AM)30% (Apr 21, 5:50 PM)29.47 "Hg (Apr 26, 7:50 AM)
Average44 °F70%29.99 "Hg
* Reported Apr 18 8:50 PM — May 3 8:50 PM, Schmallenberg, Weather by CustomWeather, © 2016

Note: Actual official high and low records may vary slightly from our data, if they occured in-between our weather recording intervals... More about our weather records

Advertising

Schmallenberg Weather History for the Previous 24 Hours

Scroll right to see more
 ConditionsComfort  
Time TempWeatherWind HumidityBarometerVisibility
8:50 PM
Tue, May 3
45 °FSunny.9 mph57%30.24 "Hg10 mi
8:20 PM48 °FSunny.13 mph54%30.21 "Hg10 mi
7:50 PM48 °FSunny.15 mph50%30.21 "Hg10 mi
7:20 PM48 °FPassing clouds.16 mph50%30.21 "HgN/A
6:50 PM48 °FPassing clouds.14 mph58%30.18 "HgN/A
6:20 PM48 °FScattered clouds.13 mph62%30.18 "HgN/A
5:50 PM48 °FScattered clouds.14 mph58%30.18 "HgN/A
5:20 PM50 °FScattered clouds.10 mph62%30.18 "HgN/A
4:50 PM46 °FScattered clouds.12 mph66%30.18 "HgN/A
4:20 PM48 °FBroken clouds.12 mph76%30.18 "HgN/A
3:50 PM48 °FScattered clouds.9 mph82%30.15 "HgN/A
3:20 PM43 °FBroken clouds.10 mph87%30.18 "HgN/A
2:50 PM48 °FSprinkles. Broken clouds.14 mph71%30.15 "HgN/A
2:20 PM46 °FScattered showers. Partly sunny.16 mph71%30.15 "HgN/A
1:20 PM41 °FSprinkles. Broken clouds.15 mph93%30.15 "HgN/A
12:50 PM46 °FBroken clouds.14 mph82%30.12 "HgN/A
12:20 PM46 °FBroken clouds.14 mph82%30.12 "HgN/A
11:50 AM46 °FPartly sunny.14 mph87%30.12 "HgN/A
11:20 AM43 °FBroken clouds.15 mph100%30.12 "HgN/A
10:50 AM43 °FPartly sunny.17 mph93%30.12 "HgN/A
10:20 AM43 °FBroken clouds.16 mph100%30.09 "HgN/A
9:50 AM45 °FBroken clouds.12 mph100%30.09 "Hg5 mi
9:20 AM45 °FDrizzle. Fog.12 mph100%30.09 "Hg2 mi
8:50 AM45 °FDrizzle. Fog.13 mph93%30.07 "Hg2 mi
Weather by CustomWeather, © 2016

See weather overviewHow to use our weather pages